Regional Weather Roundup
Issued by NWS Wakefield, VA

Home | Current Version | Previous Version | Graphics & Text | Print | Product List | Glossary On
Versions: 1 2 3 4 5 6 7 8 9 10 11 12 13 14 15 16 17 18 19 20 21 22 23 24 25 26 27 28 29 30 31 32 33 34 35 36 37 38 39 40 41 42 43 44 45 46 47 48 49 50
000
ASUS41 KAKQ 250710
RWRAKQ

REGIONAL WEATHER ROUNDUP
NATIONAL WEATHER SERVICE WAKEFIELD VA
200 AM EST SUN JAN 25 2015

Note: "fair" indicates few or no clouds below 12,000 feet with no
significant weather and/or obstructions to visibility. * = Denotes
station may not report precipitation (e.g., rain,snow,etc.),
thunder or fog.

VAZ042-051-052>054-056-250800-
NORTHERN VIRGINIA

CITY           SKY/WX    TMP DP  RH WIND       PRES   REMARKS
WASH NATIONAL  CLOUDY    39  27  62 SW6       29.74R
DULLES         MOCLDY    35  26  69 W8        29.73R
FORT BELVOIR   CLOUDY    37  28  71 W2        29.75R
QUANTICO       CLOUDY    34  29  82 NW3       29.76R
FREDERICKSBRG* CLOUDY    37  29  71 SW6       29.74R
STAFFORD*      CLOUDY    34  26  71 CALM      29.79R
WARRENTON      MOCLDY    37  32  82 CALM      29.73R
CULPEPER*      MOCLDY    39  27  60 W6        29.74R
MANASSAS*      CLOUDY    37  28  70 W9G17     29.73R
LEESBURG*      CLOUDY    37  32  81 NW7G20    29.73R
WINCHESTER     CLOUDY    39  23  52 W8G25     29.71R
FRONT ROYAL*   CLOUDY    37  27  65 NW10G16   29.71R
LURAY*         CLOUDY    39  30  70 S7        29.72R
$$

VAZ048-049-060>072-079>083-250800-
CENTRAL AND SOUTH CENTRAL VIRGINIA

CITY           SKY/WX    TMP DP  RH WIND       PRES   REMARKS
RICHMOND       PTCLDY    36  26  67 W8        29.77R
CHESTERFIELD*  FAIR      34  18  51 SW5       29.79R
PETERSBURG*    CLEAR     33  27  79 SW6       29.80R
HANOVER        MOCLDY    34  26  72 SW6       29.78R
TAPPAHANNOCK*  PTCLDY    35  25  68 W6        29.76R
QUINTON*       FAIR      34  27  74 W6        29.77R
CHARLOTTSVILLE CLEAR     38  25  59 S3        29.72R
GORDONSVILLE*  FAIR      33  26  73 CALM      29.72S
ORANGE*        PTCLDY    36  28  75 S5        29.75R
LOUISA*        PTCLDY    34  27  75 S3        29.73R
BUMPASS*       CLOUDY    34  26  72 CALM      29.75R
FARMVILLE*     CLEAR     34  28  77 SW3       29.76R
CREWE*         FAIR      31  26  83 SW3       29.77S
FORT PICKETT*  FAIR      29  25  86 SW3       29.78R
CHASE CITY*    FAIR      35  31  86 CALM      29.80R
CLARKSVILLE*   PTSUNNY   34  28  80 SW5       29.80R
SOUTH HILL*    CLEAR     31  25  80 SW3       29.85S
LAWRENCEVILLE* FAIR      32  27  81 CALM      29.80R
EMPORIA*       CLEAR     36  28  75 W8        29.82R
$$

VAZ088>098-250800-
SOUTHEAST VIRGINIA

CITY           SKY/WX    TMP DP  RH WIND       PRES   REMARKS
NORFOLK        CLEAR     38  26  62 W8        29.77R
VIRGINIA BEACH CLEAR     38  28  67 W13       29.77R
NORFOLK NAVAL  CLEAR     40  28  62 W8        29.79R
WEST POINT*    CLEAR     34  27  77 SW3       29.78R
SALUDA*        FAIR      33  27  79 W3        29.75R
NEWPORT NEWS   CLEAR     38  27  64 W8        29.77R
LANGLEY AFB    CLEAR     36  28  73 W12       29.76R
FORT EUSTIS    CLEAR     36  28  73 NW6       29.76R
WILLIAMSBURG*    N/A    N/A N/A N/A MISG      29.77R
HR EXEC AP*    FAIR      34  27  75 W6        29.81R
FRANKLIN*      CLEAR     34  28  76 W6        29.80R
WAKEFIELD      CLEAR     34  26  72 W8        29.78R
$$

VAZ020-022-025-037-045-250800-
WEST CENTRAL AND SOUTHWEST VIRGINIA

CITY           SKY/WX    TMP DP  RH WIND       PRES   REMARKS
STAUNTON*      CLEAR     38  24  57 W10G17    29.74R
WAYNESBORO*    FAIR      34  25  69 CALM      29.72R
HOT SPRINGS VA CLOUDY    26  26 100 W13       29.62R WCI  15
LYNCHBURG      MOCLDY    33  26  75 S7        29.78R
DANVILLE       CLEAR     33  25  72 SW5       29.82R
SOUTH BOSTON*  FAIR      32  26  78 SW5       29.81R
MARTINSVILLE   CLEAR     34  27  76 NW3       29.85R
ROANOKE        PTCLDY    37  25  61 NW21G26   29.79R
BLACKSBURG     CLOUDY    32  26  77 NW20G30   29.78F WCI  20
DUBLIN*        CLOUDY    35  29  79 W10       29.79S
MARION*        MOCLDY    32  27  83 W17       29.79S WCI  21
HILLSVILLE*    CLOUDY    33  27  80 NW15G26   29.75R WCI  22
RICHLANDS*     FAIR      31  25  78 W9        29.81S
WISE*          CLEAR     32  28  86 SW7       29.83F
ABINGDON*      CLEAR     33  28  81 W5        29.85S
$$

MDZ021>025-VAZ099-100-250800-
SOUTHERN MARYLAND AND THE DELMARVA PENINSULA

CITY           SKY/WX    TMP DP  RH WIND       PRES   REMARKS
PATUXENT RIVER CLOUDY    35  28  75 W12       29.73R
BAY BRIDGE APT   N/A     37  30  75 W12       29.71R
LEONARDTOWN    CLOUDY    34  28  80 W5        29.75R
DOVER          CLOUDY    36  30  78 W9        29.68R
GEORGETOWN     CLOUDY    36  27  69 W8        29.69R
EASTON         CLOUDY    39  31  74 W5        29.74R
CAMBRIDGE      CLOUDY    37  30  75 W3        29.71R
SALISBURY      CLOUDY    39  28  64 W9        29.71R
OCEAN CITY     PTCLDY    35  27  72 W9        29.70R
WALLOPS ISLAND CLOUDY    36  34  92 W7        29.73R
ACCOMACK*      CLEAR     36  30  80 W8        29.74R
$$

NCZ012>017-030>032-250800-
NORTH CENTRAL AND EASTERN NORTH CAROLINA

CITY           SKY/WX    TMP DP  RH WIND       PRES   REMARKS
ROANOKE RAPIDS FAIR      34  28  80 W6        29.82S
RALEIGH        CLEAR     35  24  64 W3        29.84R
ELIZABETH CITY CLEAR     38  28  67 W13       29.80R
AHOSKIE*       CLEAR     34  27  75 CALM      29.83R
EDENTON*       CLEAR     39  31  72 W6        29.82R
CURRITUCK*     CLEAR     37  28  70 W8        29.79R
KILL DEVIL HLS CLEAR     41  31  67 W13G23    29.78R
MANTEO         CLEAR     41  30  65 W10G21    29.81R
CAPE HATTERAS  CLEAR     44  33  65 NW18G25   29.82R
TARBORO*       FAIR      36  28  75 W5        29.85R
GOLDSBORO      CLEAR     37  35  94 SW5       29.85R
WASHINGTON     CLEAR     38  29  69 W3        29.85R
GREENVILLE     CLEAR     37  30  75 CALM      29.87R
NEW BERN       CLEAR     41  33  73 W6        29.87R
WILMINGTON     CLEAR     40  38  93 W7        29.88R
$$

VAZ048-250800-
ELSEWHERE

CITY           SKY/WX    TMP DP  RH WIND       PRES   REMARKS
HARRISBURG PA  MOCLDY    35  26  69 W13       29.64R
BALTIMORE      MOCLDY    36  26  67 W9        29.70R
ANNAPOLIS      CLOUDY    38  26  62 W6        29.71R
ANDREWS AFB    CLOUDY    36  27  69 W6        29.72R
PHILADELPHIA   MOCLDY    36  26  67 W12       29.65R
HENDERSON NC   MOCLDY    34  25  69 CALM      29.82R
GREENSBORO     CLEAR     33  24  69 W8        29.83R
ROCKY MOUNT    CLEAR     39  26  59 W3        29.85R
$$

VAZ100-250800-
MARINE

STATION/POSITION TIME  TEMP    WIND        PRES    WAVE   SWELL
                       AIR SEA DIR/SP/G            HT/PER HT/PER
                 (UTC) (F)     (DEG/KT/KT) (MB)    (FT/S) (FT/S)
BRANDYWINE LGT   0700      37  270/ 17/ 19 1004.5R
CAPE MAY NJ      0700      39  280/ 15/ 19 1003.9R
LEWES DE         0700      38  270/ 10/ 14 1004.7R
15NM E FENWICK I 0700   39 42              1004.4R   5/11
OCEAN-CITY-INLET 0700      39  290/  9/ 12 1005.0S
WACHAPREAGUE VA  0700      41  270/  3/  5 1007.0R
THOMAS POINT MD  0700   39 37  280/ 16/ 18 1007.2R
GOOSES REEF MD   0700   37     VRB 12/ 14  1004.9R
COVE POINT MD    0700          290/ 10/ 13 1006.0R
SOLOMONS ISLAND  0700      38                N/A
BISHOPS HEAD MD  0700      37  260/ 10/ 11 1005.7R
PINEY POINT MD   0700          290/  9/ 11   N/A
POTOMAC MD       0700   38     280/ 12/ 14 1005.5R
CAMBRIDGE MD     0700      36  250/  5/  8 1005.8R
LEWISETTA VA     0700      38  270/  8/ 10 1006.9R
RAPPAHANNOCK LGT 0700          270/ 15/ 17 1007.4R
STINGRAY PT      0700   38     280/ 12/ 14 1007.6S
YORK RVR RNG VA  0700          290/ 15/ 17 1006.6R
JAMESTOWN VA     0700   35     290/  8/ 10   N/A
DOMINION TERM VA 0700          280/ 12/ 15 1007.8R
KIPTOPEKE VA     0700      45  290/ 16/ 18   N/A
CHES BAY BRIDGE  0700      41  250/ 17/ 21 1007.3R
CAPE HENRY VA    0700          270/ 14/ 19 1006.5R
CHESAPEAKE LGHT  0600   41     280/ 23/ 26 1007.3R
WILLOUBY STN VA  0700          270/ 15/ 17 1008.0R
S CRANEY ISL VA  0700          240/  9/ 14 1007.8F
CAPE HENRY BUOY  0700      45                N/A     4/10   2/11
1ST LANDING BUOY 0700   40     270/ 17/ 21 1007.2R
CAPE CHARLES BUO 0700      43                N/A     4/ 4   2/13
OFFSHORE WE BUOY 0700      47                N/A     6/ 5   3/13
64NM E OF VA BCH 0700   45 53  290/ 21/ 25 1006.6R   8/11   3/11
DUCK PIER NC     0700      43  280/ 16/ 19 1007.9R
44100 DUCK FRF   0700      45                N/A     5/11   2/11
44056 DUCK FRF   0700      43                N/A     3/11   2/11
OREGON INLET NC  0700      47  270/ 11/ 15 1009.0R
HATTERAS NC      0700      56  310/ 22/ 25 1009.8R
DIAMOND SHLS NC  0700   51 71  300/ 27/ 33 1008.6R   8/11   5/11



USA.gov is the U.S. government's official web portal to all federal, state and local government web resources and services.